Location: Dötzum
(52.0808°N, 9.8063°E)
Time: 05:28:14
(UTC+00:00)

Cosmos 2058 Rocket - Pass Details

Date: 27 May 2022
Orbit: 609 x 640 km, 82.5° (Epoch: 24 June)

Event Time Altitude Azimuth Distance (km) Brightness Sun altitude
Rises 02:21:31 0° 350° (N) 2,909 7.1 -6.4°
Reaches altitude 10° 02:23:46 10° 352° (N) 1,994 6.3 -6.2°
Maximum altitude 02:28:11 74° 77° (ENE) 644 3.3 -5.7°
Drops below altitude 10° 02:32:32 10° 164° (SSE) 1,964 5.4 -5.3°
Sets 02:34:44 0° 166° (SSE) 2,861 6.2 -5.0°
